DateTimeUTC,F1_A11,F1_S11,BsB_S11,BsG_S11,BsR_S11,BbsB_S11,BbsG_S11,BbsR_S11,BaB_A11,BaG_A11,BaR_A11,Tu_S11,T_S11,Uu_S11,U_S11,P_S11,T1_A11
2021-08-24T10:00:00Z,00000200,20000000,,,,,,,0000.19,0000.13,0000.26,17.7,24.7,03.4,02.2,0680.6,30.9
2021-08-24T10:01:00Z,00000200,20000000,,,,,,,0000.35,0000.68,0000.23,17.7,24.7,03.4,02.2,0680.6,30.9
2021-08-24T10:02:00Z,00000200,20000000,,,,,,,-000.11,-000.06,0000.39,17.7,24.7,03.5,02.3,0680.5,30.9
2021-08-24T10:03:00Z,00000200,60000000,,,,,,,0000.57,0000.61,-000.07,17.7,24.7,03.7,02.4,0680.5,30.9
2021-08-24T10:04:00Z,00000200,40000000,0002.37,0001.96,0001.41,0000.17,0000.56,0000.04,0000.72,0000.33,0000.35,18.0,24.6,03.9,02.6,0681.4,30.9
2021-08-24T10:05:00Z,00000200,00000000,0003.10,0002.13,0001.43,0000.54,0000.48,0000.28,0000.21,0000.34,0000.27,18.1,24.6,03.7,02.5,0681.6,30.9
2021-08-24T10:06:00Z,00000200,00000000,0003.15,0002.03,0001.41,0000.78,0000.25,0000.39,0000.60,0000.48,0000.76,18.1,24.6,03.7,02.5,0681.5,30.9
2021-08-24T10:07:00Z,00000200,00000000,0003.59,0001.98,0001.28,0000.35,0000.36,0000.08,0000.64,0000.91,0000.60,18.1,24.5,03.9,02.6,0681.4,30.9
2021-08-24T10:08:00Z,00000200,00000000,0002.91,0001.93,0001.29,0000.49,0000.39,0000.10,0000.69,0000.42,0000.40,18.1,24.5,04.0,02.7,0681.4,30.9
2021-08-24T10:09:00Z,00000200,00000000,0003.08,0002.42,0001.55,0000.52,0000.34,0000.22,0000.17,-000.04,-000.23,18.1,24.5,03.9,02.6,0681.5,30.9
2021-08-24T10:10:00Z,00000200,00000000,0001.84,0002.08,0001.71,0000.42,0000.49,0000.39,0000.15,0000.22,0000.26,18.1,24.5,03.6,02.4,0681.5,30.9
2021-08-24T10:11:00Z,00000200,00000000,0003.16,0002.08,0001.29,-000.09,0000.45,0000.29,0000.49,0000.59,0000.46,18.1,24.5,03.5,02.4,0681.4,30.9
2021-08-24T10:12:00Z,00000200,00000000,0002.37,0002.34,0001.35,0000.61,0000.13,0000.37,0000.47,0000.51,0000.32,18.0,24.5,03.6,02.4,0681.3,30.9
2021-08-24T10:13:00Z,00000200,00000000,0002.58,0002.05,0001.32,0000.51,0000.33,0000.37,0000.60,0000.33,0000.34,18.0,24.5,03.5,02.4,0681.3,30.9
2021-08-24T10:14:00Z,00000200,00000000,0003.13,0001.97,0001.64,0000.27,0000.25,0000.10,0000.65,0000.70,0000.43,18.1,24.5,03.6,02.4,0681.3,30.9
2021-08-24T10:15:00Z,00000200,00000000,0003.16,0002.40,0001.44,0000.37,0000.50,0000.14,0000.61,0000.44,0000.81,18.0,24.5,03.6,02.4,0681.4,30.9
2021-08-24T10:16:00Z,00000200,00000000,0003.91,0002.31,0001.50,0000.28,0000.40,0000.36,0001.00,0001.17,0000.55,18.0,24.5,03.6,02.4,0681.4,30.9
2021-08-24T10:17:00Z,00000200,00000000,0003.65,0002.47,0001.21,0000.32,0000.27,-000.03,0000.88,0000.63,0000.83,18.0,24.5,03.6,02.4,0681.4,30.9
2021-08-24T10:18:00Z,00000200,00000000,0002.82,0002.45,0001.72,0000.65,0000.59,-000.00,0000.28,0000.77,0000.21,18.2,24.5,03.6,02.4,0681.4,30.9
2021-08-24T10:19:00Z,00000200,00000000,0002.89,0002.51,0001.45,0001.15,0000.29,0000.35,0000.55,0000.25,0000.29,18.3,24.6,03.4,02.3,0681.3,30.9
2021-08-24T10:20:00Z,00000200,00000000,0002.73,0002.63,0001.52,0000.04,0000.04,0000.07,0000.93,0001.08,0000.97,18.3,24.6,03.5,02.4,0681.4,30.9
2021-08-24T10:21:00Z,00000200,00000000,0002.31,0002.55,0001.56,0000.04,0000.43,0000.25,0000.80,0000.65,0000.32,18.3,24.6,03.6,02.4,0681.4,30.9
2021-08-24T10:22:00Z,00000200,00000000,0002.77,0002.11,0001.46,0000.81,0000.68,0000.26,0000.58,0000.17,0000.31,18.3,24.6,03.6,02.5,0681.4,30.9
2021-08-24T10:23:00Z,00000200,00000000,0002.36,0002.20,0001.55,0000.72,0000.34,0000.28,0000.40,0000.39,0000.56,18.3,24.6,03.5,02.4,0681.5,30.9
2021-08-24T10:24:00Z,00000200,00000000,0003.14,0002.21,0001.72,0000.42,0000.43,0000.08,0000.91,0001.03,0000.57,18.3,24.6,03.6,02.4,0681.5,30.9
2021-08-24T10:25:00Z,00000200,00000000,0003.29,0002.46,0001.65,0001.14,0000.62,-000.02,0000.24,0000.21,0000.29,18.3,24.6,03.7,02.5,0681.5,30.9
2021-08-24T10:26:00Z,00000200,00000000,0003.11,0002.43,0001.73,0001.07,0000.43,0000.06,0000.92,0000.90,0000.24,18.2,24.6,03.5,02.4,0681.5,30.9
2021-08-24T10:27:00Z,00000200,00000000,0003.04,0002.29,0001.77,0000.05,0000.47,0000.30,0000.62,0000.41,0000.79,18.2,24.6,03.6,02.4,0681.5,30.9
2021-08-24T10:28:00Z,00000200,00000000,0003.18,0002.19,0001.58,0000.68,0000.27,0000.76,0001.12,0000.77,0000.48,18.2,24.6,03.8,02.6,0681.4,30.9
2021-08-24T10:29:00Z,00000200,00000000,0003.41,0002.27,0001.66,0000.71,0000.13,0000.38,0000.76,0001.03,0000.73,18.2,24.5,03.8,02.6,0681.3,30.9
2021-08-24T10:30:00Z,00000200,00000000,0003.09,0002.28,0001.58,0001.39,0000.19,0000.19,0000.37,0000.79,0000.35,18.2,24.6,03.8,02.6,0681.3,30.9
2021-08-24T10:31:00Z,00000200,00000000,0003.28,0002.47,0001.81,0000.41,-000.13,0000.15,0001.23,0000.66,0000.66,18.2,24.6,03.8,02.6,0681.3,30.9
2021-08-24T10:32:00Z,00000200,00000000,0002.79,0002.46,0001.53,0000.61,0000.51,-000.04,0000.57,0000.61,0000.59,18.2,24.5,04.0,02.7,0681.2,30.9
2021-08-24T10:33:00Z,00000200,00000000,0003.53,0002.46,0001.57,0000.71,0000.40,0000.38,0000.45,0000.27,0000.32,18.2,24.6,04.0,02.7,0681.2,30.9
2021-08-24T10:34:00Z,00000200,00000000,0002.48,0002.75,0001.73,0000.76,0000.25,0000.13,0000.57,0000.56,0000.41,18.2,24.5,03.9,02.6,0681.3,30.9
2021-08-24T10:35:00Z,00000200,00000000,0003.41,0002.77,0001.67,0000.56,0000.47,0000.24,0000.51,0000.75,0000.16,18.2,24.5,03.9,02.6,0681.3,30.9
2021-08-24T10:36:00Z,00000200,00000000,0003.44,0002.61,0001.63,0000.51,0000.49,0000.32,0001.43,0000.99,0001.28,18.2,24.5,03.9,02.6,0681.3,30.9
2021-08-24T10:37:00Z,00000200,00000000,0003.40,0002.34,0001.78,0000.70,0000.31,0000.35,0000.53,0000.82,0000.43,18.2,24.5,04.0,02.7,0681.3,30.9
2021-08-24T10:38:00Z,00000200,00000000,0002.08,0002.48,0001.63,-000.17,0000.40,0000.31,0000.75,0000.20,0000.16,18.1,24.5,03.9,02.7,0681.4,30.9
2021-08-24T10:39:00Z,00000200,00000000,0002.75,0002.45,0001.83,0000.80,0000.22,0000.17,0000.26,0000.65,0000.80,18.1,24.5,04.0,02.7,0681.4,30.9
2021-08-24T10:40:00Z,00000200,00000000,0002.95,0002.36,0001.84,0000.32,0000.19,0000.27,0000.69,0000.48,0000.44,18.1,24.5,03.9,02.7,0681.4,30.9
2021-08-24T10:41:00Z,00000200,00000000,0003.75,0002.77,0001.64,0000.33,0000.61,0000.29,0000.78,0000.67,0000.26,18.1,24.5,04.0,02.7,0681.4,30.9
2021-08-24T10:42:00Z,00000200,00000000,0002.69,0002.73,0001.66,0001.08,0000.28,0000.40,0000.67,0000.79,0000.78,18.1,24.5,04.0,02.7,0681.4,30.9
2021-08-24T10:43:00Z,00000200,00000000,0003.59,0002.44,0001.42,0000.75,0000.43,-000.36,0000.80,0000.54,0000.49,18.1,24.5,03.9,02.7,0681.4,30.9
2021-08-24T10:44:00Z,00000200,00000000,0003.53,0002.43,0001.46,0000.56,0000.52,0000.15,0000.55,0000.60,0000.32,18.1,24.5,03.9,02.7,0681.4,30.9
2021-08-24T10:45:00Z,00000200,00000000,0002.88,0002.25,0001.54,0001.24,0000.37,0000.34,0000.65,0000.63,0000.69,18.1,24.5,03.9,02.6,0681.4,30.9
2021-08-24T10:46:00Z,00000200,00000000,0003.07,0002.55,0001.72,0000.83,0000.38,0000.32,0000.90,0000.98,0000.55,18.1,24.5,04.0,02.7,0681.4,30.9
2021-08-24T10:47:00Z,00000200,00000000,0002.86,0002.55,0001.77,-000.36,0000.42,0000.26,0000.86,0001.15,0000.68,18.2,24.5,04.0,02.7,0681.4,30.9
2021-08-24T10:48:00Z,00000200,00000000,0003.01,0002.66,0001.69,0000.18,0000.23,0000.25,0001.05,0000.57,0000.84,18.3,24.5,04.2,02.8,0681.4,30.9
2021-08-24T10:49:00Z,00000200,00000000,0003.65,0002.48,0001.19,0000.06,0000.34,-000.22,0000.58,0000.45,0000.59,18.4,24.6,04.2,02.9,0681.4,30.9
2021-08-24T10:50:00Z,00000200,00000000,0004.02,0002.35,0001.28,0000.33,0000.62,-000.03,0000.58,0000.79,0000.57,18.4,24.6,04.1,02.8,0681.4,30.9
2021-08-24T10:51:00Z,00000200,00000000,0002.70,0002.68,0001.82,0000.72,0000.29,0000.12,0000.78,0000.59,0000.31,18.4,24.6,04.1,02.8,0681.4,30.9
2021-08-24T10:52:00Z,00000200,00000000,0003.70,0002.61,0001.74,0000.71,0000.47,0000.08,0000.63,0000.90,0000.70,18.4,24.7,04.2,02.8,0681.5,30.9
2021-08-24T10:53:00Z,00000200,00000000,0003.52,0002.56,0001.58,0000.24,0000.60,0000.33,0000.95,0000.52,0000.52,18.4,24.7,04.2,02.9,0681.4,30.9
2021-08-24T10:54:00Z,00000200,00000000,0003.74,0002.51,0002.09,0000.78,0000.31,0000.11,0001.23,0001.28,0000.72,18.4,24.6,04.3,02.9,0681.4,30.9
2021-08-24T10:55:00Z,00000200,00000000,0003.46,0002.39,0001.30,0000.89,0000.34,0000.24,0000.63,0000.37,0000.24,18.4,24.6,04.4,03.0,0681.4,30.9
2021-08-24T10:56:00Z,00000200,00000000,0003.41,0002.76,0001.79,0000.54,0000.23,0000.41,0000.53,0000.63,0000.77,18.4,24.6,04.5,03.1,0681.4,30.9
2021-08-24T10:57:00Z,00000200,40000000,,,,,,,-000.23,-000.07,-000.23,18.4,24.7,04.9,03.3,0681.5,30.9
2021-08-24T10:58:00Z,00000200,60000000,,,,,,,0000.26,-000.04,0000.16,18.1,24.8,04.3,02.8,0680.5,30.9
2021-08-24T10:59:00Z,00000200,20000000,,,,,,,-000.11,0000.05,0000.19,18.1,24.9,04.2,02.8,0680.5,30.9
